[[{"header":{"parameterUnit":"m.s-1","parameterCategory":2,"la1":30.2991,"la2":30.254,"lo1":-89.0895,"lo2":-89.0444,"dy":0.0017,"dx":0.0017,"nx":28,"ny":28,"refTime":"2023-11-14T09:00:00:Z","depth":"0","parameterNumber":2,"parameterNumberName":"U-component_of_CURRENTS"},"data":[0,0,0,0,0,0,0,0,0,0,0,0,0,0,0,0,0,0,0,0,0,0,0,0,0,0,0,0,0,0,0,0,0,0,0,0,0,0,0,0,0,0,0,0,0,0,0,0,0,0,0,0,0,0,0,0,0,0,-0.2429,-0.243,0,-0.2438,-0.2438,-0.2437,-0.2424,-0.2424,-0.2423,-0.2423,-0.2394,-0.2393,-0.2393,0,0,0,0,0,0,0,0,0,0,0,0,0,-0.2366,-0.2368,-0.2429,-0.243,-0.243,-0.2438,-0.2438,-0.2437,-0.2424,-0.2424,-0.2423,-0.2423,-0.2394,-0.2393,-0.2393,0,0,0,0,0,0,0,0,0,0,0,0,0,-0.2384,-0.2368,-0.2429,-0.2426,-0.2426,-0.2438,-0.2438,-0.2437,-0.2424,-0.2424,-0.2423,-0.2423,-0.2394,-0.2393,-0.2393,-0.2393,0,0,-0.239,-0.2389,0,0,0,0,0,0,0,0,-0.2383,-0.2386,-0.2427,-0.2427,-0.2427,-0.2432,-0.2405,-0.2422,-0.2424,-0.2422,-0.2423,-0.2423,-0.2405,-0.2403,-0.2402,-0.2392,-0.239,-0.239,-0.2389,-0.2389,-0.2389,0,0,0,0,0,0,0,-0.2382,-0.2385,-0.243,-0.2427,-0.2427,-0.2413,-0.2415,-0.2408,-0.2412,-0.2422,-0.2422,-0.2427,-0.2405,-0.2403,-0.2401,-0.239,-0.239,-0.2389,-0.2388,-0.2388,-0.2382,-0.2382,0,0,0,0,0,0,-0.2389,-0.2384,-0.243,-0.243,-0.2407,-0.2415,-0.2417,-0.2428,-0.2413,-0.2412,-0.2428,-0.2427,-0.2405,-0.2402,-0.24,-0.2421,-0.2389,-0.2388,-0.2387,-0.2382,-0.2382,-0.2382,0,0,0,0,0,0,-0.2387,-0.2393,-0.2429,-0.2409,-0.2413,-0.2417,-0.2429,-0.2429,-0.243,-0.2418,-0.2415,-0.243,-0.2404,-0.2401,-0.2396,-0.2419,-0.2388,-0.2387,-0.2381,-0.2382,-0.2382,-0.2449,0,0,0,0,0,0,-0.2386,-0.2393,-0.2399,-0.241,-0.2415,-0.2444,-0.243,-0.2429,-0.2435,-0.2434,-0.2419,-0.2416,-0.2404,-0.2398,-0.2395,-0.2417,-0.2386,-0.2381,-0.2381,-0.2382,-0.2446,-0.2451,-0.2456,0,0,0,0,0,-0.2384,-0.24,-0.24,-0.2405,-0.2426,-0.2445,-0.2446,-0.2444,-0.2435,-0.2442,-0.2428,-0.2417,-0.24,-0.2397,-0.2394,-0.2416,-0.238,-0.2381,-0.2382,-0.2444,-0.245,-0.2456,0,0,0,0,0,0,-0.2375,-0.2401,-0.2401,-0.2423,-0.2436,-0.2444,-0.245,-0.2448,-0.2442,-0.244,-0.2421,-0.2417,-0.2419,-0.2405,-0.2402,-0.2414,-0.2389,-0.2389,-0.2437,-0.2443,-0.2448,-0.2458,-0.2385,0,0,0,0,0,-0.2378,-0.2395,-0.2415,-0.2431,-0.244,-0.2444,-0.245,-0.2453,-0.2452,-0.245,-0.2439,-0.2426,-0.2421,-0.2421,-0.2409,-0.2419,-0.2419,-0.243,-0.2435,-0.2439,-0.2444,-0.2461,-0.2468,-0.2385,-0.2385,-0.2385,0,0,-0.2378,-0.2394,-0.2404,-0.243,-0.2437,-0.2468,-0.2446,-0.2463,-0.2487,-0.2447,-0.2464,-0.244,-0.2424,-0.2433,-0.2434,-0.2427,-0.2466,-0.2441,-0.2445,-0.2447,-0.2463,-0.2471,-0.2478,-0.2386,-0.2386,-0.2386,0,0,-0.2399,-0.2404,-0.2431,-0.245,-0.2473,-0.248,-0.2488,-0.25,-0.2502,-0.2514,-0.2491,-0.248,-0.2473,-0.247,-0.2466,-0.2491,-0.2486,-0.2486,-0.253,-0.2546,-0.2554,-0.256,-0.2587,-0.2596,-0.2496,-0.2497,-0.2497,0,-0.2398,-0.2439,-0.244,-0.2477,-0.2499,-0.2492,-0.2531,-0.2538,-0.2544,-0.2553,-0.2527,-0.2519,-0.2494,-0.2519,-0.2519,-0.2505,-0.2515,-0.2512,-0.2555,-0.2561,-0.2567,-0.2593,-0.2601,-0.25,-0.2499,-0.2499,-0.2499,0,-0.2443,-0.248,-0.2498,-0.2545,-0.2566,-0.2595,-0.2614,-0.2627,-0.2621,-0.2625,-0.2633,-0.2597,-0.2592,-0.2584,-0.2555,-0.2586,-0.2581,-0.2556,-0.2545,-0.258,-0.2604,-0.2612,-0.2505,-0.2503,-0.2502,-0.2502,0,0,-0.2432,-0.2515,-0.2522,-0.2559,-0.2605,-0.2627,-0.2672,-0.2709,-0.274,-0.2725,-0.276,-0.2726,-0.2694,-0.2686,-0.2652,-0.2658,-0.2696,-0.2624,-0.2623,-0.2661,-0.2747,-0.276,-0.2769,-0.2683,-0.2684,-0.2685,-0.2755,0,-0.2467,-0.255,-0.2583,-0.2658,-0.2701,-0.2723,-0.2767,-0.2797,-0.2805,-0.2833,-0.2803,-0.2806,-0.274,-0.273,-0.2729,-0.2697,-0.2716,-0.268,-0.2698,-0.2699,-0.2715,-0.2778,-0.2738,-0.2798,-0.2762,-0.2764,-0.2764,0,-0.2496,-0.2553,-0.2631,-0.2725,-0.2745,-0.2782,-0.2847,-0.2886,-0.2926,-0.2932,-0.2934,-0.2907,-0.2901,-0.2836,-0.2827,-0.2808,-0.2783,-0.2762,-0.2764,-0.2757,-0.2726,-0.2753,-0.2813,-0.2794,-0.2776,-0.2775,-0.2774,0,-0.2475,-0.2584,-0.2644,-0.2674,-0.2773,-0.2806,-0.2851,-0.2905,-0.2942,-0.2983,-0.3009,-0.3003,-0.2993,-0.2965,-0.2902,-0.287,-0.2905,-0.2858,-0.2859,-0.286,-0.2819,-0.2815,-0.287,-0.2872,-0.2872,-0.2872,-0.2871,0,-0.249,-0.2541,-0.2636,-0.2668,-0.2736,-0.2804,-0.2864,-0.2914,-0.2985,-0.3032,-0.304,-0.307,-0.3021,-0.3026,-0.2963,-0.2946,-0.2957,-0.2888,-0.2886,-0.2842,-0.2839,-0.2813,-0.2797,-0.2874,-0.2874,-0.2873,-0.2873,0,-0.2447,-0.2516,-0.2587,-0.2694,-0.2721,-0.276,-0.286,-0.291,-0.2985,-0.3051,-0.3064,-0.3124,-0.3134,-0.3107,-0.3077,-0.3031,-0.2976,-0.2998,-0.2958,-0.295,-0.2922,-0.2911,-0.2924,-0.2853,-0.3018,-0.3019,-0.302,0,-0.2433,-0.2463,-0.257,-0.2599,-0.264,-0.2708,-0.2758,-0.2873,-0.2927,-0.3072,-0.3101,-0.3166,-0.3201,-0.3205,-0.3145,-0.3108,-0.3018,-0.3037,-0.296,-0.2943,-0.2929,-0.2877,-0.281,-0.2937,-0.2937,-0.2937,-0.2937,0,-0.2384,-0.2414,-0.2459,-0.2528,-0.2581,-0.2653,-0.2735,-0.279,-0.2929,-0.3014,-0.3135,-0.3196,-0.3252,-0.3229,-0.32,-0.313,-0.2986,-0.3036,-0.3022,-0.2888,-0.2829,-0.2752,-0.2878,-0.2937,-0.2937,-0.2937,-0.2937,-0.2937,-0.2312,-0.2324,-0.2374,-0.243,-0.2498,-0.2569,-0.2578,-0.2707,-0.2804,-0.2922,-0.3074,-0.3177,-0.3239,-0.321,-0.3169,-0.3077,-0.301,-0.2965,-0.2962,-0.2917,-0.2825,-0.2968,-0.3018,-0.3019,-0.3019,-0.302,-0.302,0,-0.2207,-0.2228,-0.2275,-0.2325,-0.2347,-0.2431,-0.2528,-0.2521,-0.2593,-0.2811,-0.2922,-0.3137,-0.3147,-0.318,-0.3151,-0.3039,-0.2914,-0.2925,-0.283,-0.2766,-0.2906,-0.2879,-0.2897,-0.2897,-0.2897,-0.2897,-0.2897,-0.2897,-0.214,-0.2131,-0.2164,-0.2148,-0.2177,-0.2149,-0.217,-0.2213,-0.2325,-0.2513,-0.2725,-0.2939,-0.2999,-0.3248,-0.3146,-0.3012,-0.2872,-0.2798,-0.2751,-0.2857,-0.2859,-0.2861,-0.2832,-0.284,-0.284,-0.2542,-0.254,-0.2539]},{"header":{"parameterUnit":"m.s-1","parameterCategory":2,"la1":30.2991,"la2":30.254,"lo1":-89.0895,"lo2":-89.0444,"dy":0.0017,"dx":0.0017,"nx":28,"ny":28,"refTime":"2023-11-14T09:00:00:Z","depth":"0","parameterNumber":3,"parameterNumberName":"V-component_of_CURRENTS"},"data":[0,0,0,0,0,0,0,0,0,0,0,0,0,0,0,0,0,0,0,0,0,0,0,0,0,0,0,0,0,0,0,0,0,0,0,0,0,0,0,0,0,0,0,0,0,0,0,0,0,0,0,0,0,0,0,0,0,0,-0.0318,-0.0317,0,-0.0209,-0.0208,-0.0207,-0.0147,-0.0147,-0.0147,-0.0147,-0.0033,-0.003,-0.0027,0,0,0,0,0,0,0,0,0,0,0,0,0,-0.0434,-0.0433,-0.0318,-0.0317,-0.0316,-0.0209,-0.0208,-0.0206,-0.0147,-0.0147,-0.0147,-0.0146,-0.0034,-0.003,-0.0027,0,0,0,0,0,0,0,0,0,0,0,0,0,-0.036,-0.0432,-0.0319,-0.0273,-0.0268,-0.021,-0.0208,-0.0206,-0.0147,-0.0147,-0.0147,-0.0146,-0.0035,-0.0031,-0.0026,-0.0004,0,0,-0.0013,-0.0011,0,0,0,0,0,0,0,0,-0.0365,-0.0356,-0.0281,-0.0276,-0.027,-0.0192,-0.0207,-0.0138,-0.0147,-0.0193,-0.0147,-0.0146,-0.0086,-0.0077,-0.0057,0.0001,0.0006,-0.0013,-0.001,-0.0008,-0.0007,0,0,0,0,0,0,0,-0.037,-0.036,-0.0275,-0.028,-0.0273,-0.0244,-0.0234,-0.0193,-0.0142,-0.0189,-0.0184,-0.0172,-0.0083,-0.0061,-0.0054,0.0008,-0.0013,-0.0009,-0.0006,-0.0005,0.0102,0.0103,0,0,0,0,0,0,-0.0386,-0.0365,-0.0278,-0.0272,-0.0318,-0.0243,-0.0231,-0.0217,-0.0142,-0.013,-0.0173,-0.017,-0.0069,-0.0059,-0.005,-0.0011,-0.0008,-0.0004,-0.0002,0.0102,0.0102,0.0103,0,0,0,0,0,0,-0.0389,-0.0379,-0.0283,-0.0316,-0.0302,-0.0241,-0.0226,-0.0215,-0.0193,-0.013,-0.0118,-0.0162,-0.0068,-0.0056,-0.001,-0.0007,-0.0002,0.0002,0.0102,0.0102,0.0102,0.0061,0,0,0,0,0,0,-0.0392,-0.0381,-0.038,-0.0317,-0.0301,-0.0254,-0.0226,-0.0213,-0.0186,-0.0182,-0.0117,-0.0106,-0.0067,-0.0017,-0.0006,-0.0001,0.0005,0.0101,0.0102,0.0102,0.0062,0.0059,0.0058,0,0,0,0,0,-0.0397,-0.0398,-0.038,-0.037,-0.03,-0.0254,-0.0243,-0.0199,-0.0186,-0.0179,-0.0131,-0.0108,-0.0006,-0.0013,0.0,0.0006,0.0101,0.0102,0.0102,0.0063,0.006,0.0058,0,0,0,0,0,0,-0.045,-0.039,-0.037,-0.0353,-0.031,-0.0244,-0.0235,-0.0204,-0.016,-0.0158,-0.01,-0.0086,-0.0048,-0.0014,-0.0023,0.0038,0.0049,0.0053,0.0015,0.0013,0.0011,0.0001,0.0009,0,0,0,0,0,-0.0462,-0.0445,-0.0384,-0.0372,-0.0354,-0.0296,-0.0274,-0.0243,-0.0194,-0.0174,-0.0127,-0.0078,-0.0035,-0.0007,0.0032,0.007,0.0105,0.0081,0.0079,0.0077,0.0078,0.013,0.0133,0.0104,0.0104,0.0104,0,0,-0.0481,-0.0445,-0.0436,-0.0382,-0.0347,-0.0324,-0.0282,-0.0252,-0.0228,-0.0169,-0.0129,-0.0087,-0.0029,0.0012,0.0032,0.0042,0.0104,0.0078,0.0076,0.0078,0.0131,0.0134,0.0136,0.0105,0.0105,0.0105,0,0,-0.0513,-0.0478,-0.0477,-0.0441,-0.0391,-0.035,-0.0345,-0.0281,-0.0249,-0.0204,-0.0158,-0.011,-0.0046,0.0004,0.0035,0.0046,0.0085,0.0052,0.0044,0.0094,0.0096,0.0099,0.0145,0.0152,0.0058,0.0058,0.0058,0,-0.0542,-0.0524,-0.0471,-0.0457,-0.0433,-0.0367,-0.0359,-0.0314,-0.0242,-0.0213,-0.0201,-0.0092,-0.0048,0.0017,0.0021,0.0042,0.0073,0.0047,0.009,0.0094,0.0098,0.0144,0.0153,0.0056,0.0056,0.0057,0.0057,0,-0.0568,-0.0553,-0.0549,-0.0508,-0.0474,-0.0457,-0.0387,-0.0352,-0.0308,-0.0256,-0.0189,-0.0119,-0.0053,-0.0032,-0.0001,0.005,0.0064,0.0075,0.0094,0.0098,0.0147,0.0157,0.0053,0.0054,0.0055,0.0055,0,0,-0.0635,-0.0581,-0.058,-0.0572,-0.05,-0.0478,-0.0432,-0.0368,-0.0338,-0.0264,-0.0216,-0.0133,-0.0091,-0.0053,-0.0001,0.0048,0.0099,0.0067,0.0071,0.0108,0.0206,0.0271,0.0288,0.0114,0.0115,0.0116,0.0229,0,-0.0675,-0.0678,-0.0625,-0.0618,-0.0614,-0.0531,-0.0493,-0.0424,-0.0355,-0.0292,-0.0199,-0.0142,-0.0098,-0.007,-0.0011,0.0073,0.0122,0.0067,0.0202,0.0206,0.0259,0.0301,0.0358,0.0468,0.0239,0.0241,0.0242,0,-0.0719,-0.0713,-0.0725,-0.0675,-0.0664,-0.0644,-0.057,-0.0526,-0.0411,-0.0355,-0.0266,-0.0191,-0.009,-0.007,0.0088,0.0049,0.0119,0.0182,0.0188,0.0272,0.029,0.0429,0.0495,0.0671,0.0257,0.0256,0.0255,0,-0.0807,-0.0777,-0.0794,-0.0779,-0.0715,-0.0698,-0.0657,-0.0555,-0.0516,-0.0398,-0.0355,-0.0218,-0.0151,-0.0038,0.0111,0.0095,0.0278,0.0273,0.04,0.0405,0.0493,0.0504,0.0744,0.0369,0.0368,0.0368,0.0368,0,-0.0873,-0.0881,-0.0842,-0.0853,-0.0865,-0.0783,-0.0767,-0.0698,-0.0599,-0.0553,-0.0405,-0.0332,-0.0143,-0.0005,0.011,0.0305,0.0285,0.0415,0.0448,0.0481,0.0489,0.0677,0.0737,0.0372,0.0371,0.037,0.037,0,-0.0967,-0.0941,-0.0961,-0.0921,-0.0913,-0.0925,-0.086,-0.0841,-0.0727,-0.0661,-0.0626,-0.0414,-0.0212,-0.0013,0.0194,0.0312,0.0588,0.054,0.057,0.0605,0.0885,0.0938,0.1192,0.1241,0.0705,0.0707,0.0709,0,-0.1015,-0.104,-0.1039,-0.1064,-0.1052,-0.1049,-0.1045,-0.0934,-0.0896,-0.0708,-0.0681,-0.0454,-0.0271,0.0092,0.0354,0.0611,0.07,0.0786,0.0769,0.0936,0.1019,0.1047,0.1069,0.0867,0.0871,0.0873,0.0875,0,-0.1106,-0.1109,-0.1129,-0.1194,-0.1212,-0.1215,-0.1185,-0.1168,-0.1022,-0.0928,-0.0749,-0.0581,-0.0167,0.0215,0.0577,0.0706,0.0924,0.0846,0.1021,0.1181,0.1226,0.1276,0.0749,0.0898,0.0896,0.0894,0.0893,0.0892,-0.1172,-0.1219,-0.1259,-0.1319,-0.135,-0.1364,-0.1366,-0.1293,-0.122,-0.103,-0.0829,-0.0516,0.0097,0.065,0.0818,0.1226,0.1126,0.1318,0.1371,0.1386,0.1442,0.0968,0.115,0.1149,0.1148,0.1148,0.1147,0,-0.1249,-0.1301,-0.1374,-0.1436,-0.1496,-0.1473,-0.1449,-0.1421,-0.1337,-0.1069,-0.0844,-0.0112,0.0457,0.0971,0.1592,0.1768,0.1749,0.1826,0.1887,0.188,0.1484,0.1501,0.1766,0.1766,0.1765,0.1765,0.1765,0.1765,-0.129,-0.1387,-0.1432,-0.156,-0.1595,-0.1641,-0.163,-0.155,-0.1366,-0.0939,-0.049,-0.0115,0.0712,0.1792,0.2308,0.2287,0.2399,0.2377,0.2409,0.2163,0.2119,0.2077,0.2111,0.2499,0.25,0.2778,0.2781,0.2783]}],[{"header":{"parameterUnit":"m.s-1","parameterCategory":2,"la1":30.2991,"la2":30.254,"lo1":-89.0895,"lo2":-89.0444,"dy":0.0017,"dx":0.0017,"nx":28,"ny":28,"refTime":"2023-11-14T09:00:00:Z","depth":"2","parameterNumber":2,"parameterNumberName":"U-component_of_CURRENTS"},"data":[0,0,0,0,0,0,0,0,0,0,0,0,0,0,0,0,0,0,0,0,0,0,0,0,0,0,0,0,0,0,0,0,0,0,0,0,0,0,0,0,0,0,0,0,0,0,0,0,0,0,0,0,0,0,0,0,0,0,-0.2324,-0.2325,0,-0.2332,-0.2332,-0.2332,-0.2321,-0.2321,-0.2321,-0.2321,-0.2293,-0.2293,-0.2292,0,0,0,0,0,0,0,0,0,0,0,0,0,-0.2263,-0.2264,-0.2324,-0.2325,-0.2325,-0.2332,-0.2332,-0.2332,-0.2321,-0.2321,-0.2321,-0.2321,-0.2294,-0.2293,-0.2292,0,0,0,0,0,0,0,0,0,0,0,0,0,-0.2279,-0.2264,-0.2324,-0.2323,-0.2323,-0.2332,-0.2332,-0.2332,-0.2321,-0.2321,-0.2321,-0.2321,-0.2294,-0.2293,-0.2292,-0.229,0,0,-0.2289,-0.2289,0,0,0,0,0,0,0,0,-0.2279,-0.2281,-0.2322,-0.2323,-0.2323,-0.2328,-0.2301,-0.2317,-0.2321,-0.2319,-0.2321,-0.2321,-0.2304,-0.2302,-0.23,-0.2289,-0.2288,-0.2289,-0.2289,-0.2288,-0.2288,0,0,0,0,0,0,0,-0.2277,-0.2281,-0.2324,-0.2323,-0.2323,-0.2309,-0.2311,-0.2304,-0.2309,-0.2319,-0.2319,-0.2325,-0.2303,-0.2301,-0.23,-0.2287,-0.2289,-0.2288,-0.2288,-0.2287,-0.2281,-0.2282,0,0,0,0,0,0,-0.2285,-0.228,-0.2324,-0.2325,-0.2303,-0.2311,-0.2313,-0.2324,-0.231,-0.2309,-0.2325,-0.2324,-0.2303,-0.2301,-0.2299,-0.2321,-0.2288,-0.2287,-0.2287,-0.2281,-0.2282,-0.2282,0,0,0,0,0,0,-0.2283,-0.2289,-0.2324,-0.2304,-0.2308,-0.2313,-0.2325,-0.2325,-0.2327,-0.2315,-0.2313,-0.2329,-0.2303,-0.23,-0.2296,-0.2318,-0.2287,-0.2286,-0.2281,-0.2281,-0.2282,-0.2348,0,0,0,0,0,0,-0.2282,-0.2288,-0.2296,-0.2305,-0.231,-0.2338,-0.2325,-0.2325,-0.2332,-0.2331,-0.2318,-0.2315,-0.2302,-0.2297,-0.2295,-0.2317,-0.2285,-0.228,-0.2281,-0.2282,-0.2346,-0.2351,-0.2356,0,0,0,0,0,-0.228,-0.2295,-0.2296,-0.2301,-0.2321,-0.2339,-0.234,-0.234,-0.2333,-0.234,-0.2327,-0.2316,-0.23,-0.2297,-0.2294,-0.2316,-0.228,-0.2281,-0.2281,-0.2343,-0.235,-0.2356,0,0,0,0,0,0,-0.2272,-0.2296,-0.2297,-0.2319,-0.2331,-0.2339,-0.2346,-0.2344,-0.234,-0.2338,-0.232,-0.2316,-0.2319,-0.2305,-0.2302,-0.2314,-0.2289,-0.2289,-0.2337,-0.2343,-0.2348,-0.2358,-0.2285,0,0,0,0,0,-0.2275,-0.2292,-0.2311,-0.2327,-0.2336,-0.234,-0.2346,-0.235,-0.235,-0.2348,-0.2338,-0.2326,-0.232,-0.2322,-0.2309,-0.2319,-0.2319,-0.233,-0.2335,-0.234,-0.2345,-0.236,-0.2368,-0.2285,-0.2285,-0.2285,0,0,-0.2276,-0.2292,-0.23,-0.2326,-0.2333,-0.2363,-0.2343,-0.236,-0.2384,-0.2345,-0.2363,-0.234,-0.2324,-0.2333,-0.2334,-0.2327,-0.2366,-0.2341,-0.2345,-0.2347,-0.2362,-0.237,-0.2378,-0.2285,-0.2285,-0.2285,0,0,-0.2296,-0.2302,-0.2328,-0.2346,-0.2369,-0.2376,-0.2385,-0.2397,-0.24,-0.2412,-0.239,-0.2381,-0.2374,-0.237,-0.2367,-0.2392,-0.2387,-0.2387,-0.2431,-0.2447,-0.2454,-0.246,-0.2487,-0.2496,-0.2397,-0.2397,-0.2398,0,-0.2296,-0.2335,-0.2337,-0.2373,-0.2394,-0.2388,-0.2426,-0.2433,-0.2441,-0.245,-0.2426,-0.2419,-0.2395,-0.2419,-0.2419,-0.2406,-0.2416,-0.2413,-0.2456,-0.2462,-0.2467,-0.2493,-0.2501,-0.2401,-0.24,-0.24,-0.24,0,-0.234,-0.2376,-0.2393,-0.2439,-0.2459,-0.2488,-0.2507,-0.2521,-0.2517,-0.2521,-0.2531,-0.2496,-0.2492,-0.2484,-0.2456,-0.2486,-0.2482,-0.2457,-0.2445,-0.248,-0.2504,-0.2512,-0.2406,-0.2404,-0.2403,-0.2403,0,0,-0.233,-0.241,-0.2417,-0.2453,-0.2498,-0.2519,-0.2564,-0.2599,-0.2631,-0.2618,-0.2654,-0.2621,-0.2592,-0.2584,-0.2552,-0.2558,-0.2596,-0.2525,-0.2524,-0.2562,-0.2646,-0.2656,-0.2664,-0.2583,-0.2584,-0.2585,-0.2654,0,-0.2364,-0.2444,-0.2476,-0.2548,-0.259,-0.2612,-0.2656,-0.2685,-0.2694,-0.2723,-0.2695,-0.27,-0.2637,-0.2629,-0.2627,-0.2596,-0.2616,-0.258,-0.2597,-0.2598,-0.2611,-0.2673,-0.2425,-0.2467,-0.2661,-0.2663,-0.2664,0,-0.2392,-0.2447,-0.2522,-0.2613,-0.2632,-0.267,-0.2734,-0.2772,-0.2813,-0.282,-0.2824,-0.2799,-0.2795,-0.2732,-0.2725,-0.2706,-0.2682,-0.2662,-0.2664,-0.2653,-0.2621,-0.2459,-0.2473,-0.2676,-0.2675,-0.2674,-0.2673,0,-0.2372,-0.2478,-0.2536,-0.2565,-0.266,-0.2694,-0.2738,-0.2792,-0.2828,-0.2871,-0.2898,-0.2893,-0.2886,-0.2859,-0.2798,-0.2767,-0.2802,-0.2755,-0.2754,-0.2754,-0.2537,-0.2517,-0.2769,-0.2769,-0.2769,-0.2769,-0.2769,0,-0.2387,-0.2436,-0.2529,-0.2559,-0.2626,-0.2693,-0.2753,-0.2802,-0.2872,-0.2919,-0.293,-0.2958,-0.2913,-0.2918,-0.2858,-0.284,-0.2852,-0.2782,-0.2779,-0.2555,-0.2537,-0.27,-0.2691,-0.2772,-0.2771,-0.2771,-0.277,0,-0.2345,-0.2412,-0.2481,-0.2585,-0.2612,-0.2651,-0.2749,-0.2798,-0.2874,-0.2939,-0.2953,-0.3012,-0.3023,-0.2998,-0.2969,-0.2922,-0.2897,-0.2888,-0.2642,-0.261,-0.2827,-0.2821,-0.2904,-0.2905,-0.2906,-0.2907,-0.2907,0,-0.2331,-0.2361,-0.2465,-0.2493,-0.2534,-0.2602,-0.2651,-0.2764,-0.2816,-0.2958,-0.2986,-0.3052,-0.3079,-0.3082,-0.2983,-0.2935,-0.2948,-0.2706,-0.2602,-0.2856,-0.2844,-0.2836,-0.2829,-0.2336,-0.2331,-0.2328,-0.2325,0,-0.2283,-0.2312,-0.2357,-0.2424,-0.2477,-0.2546,-0.2627,-0.268,-0.2816,-0.2894,-0.301,-0.3064,-0.308,-0.2927,-0.2883,-0.2796,-0.2694,-0.2643,-0.2956,-0.2362,-0.2331,-0.2317,-0.2325,-0.2295,-0.2298,-0.2301,-0.2302,-0.2303,-0.2213,-0.2224,-0.2273,-0.2328,-0.2395,-0.2463,-0.247,-0.2579,-0.2666,-0.2728,-0.2895,-0.288,-0.2855,-0.2669,-0.2563,-0.2445,-0.2608,-0.245,-0.2454,-0.2464,-0.2408,-0.2382,-0.2346,-0.2349,-0.2352,-0.2354,-0.2357,0,-0.2103,-0.213,-0.2176,-0.2224,-0.2238,-0.2329,-0.242,-0.2372,-0.2413,-0.2525,-0.2586,-0.2359,-0.2321,-0.229,-0.2088,-0.2086,-0.1986,-0.1982,-0.1823,-0.1856,-0.1884,-0.1792,-0.157,-0.1568,-0.1566,-0.1564,0,0,-0.2036,-0.2024,-0.2054,-0.2034,-0.2069,-0.2022,-0.2039,-0.2008,-0.2025,-0.1977,-0.1972,-0.217,-0.2246,-0.19,-0.1828,-0.1676,-0.1734,-0.1591,-0.2219,-0.2062,-0.2087,-0.2154,-0.2052,0,0,0,0,0]},{"header":{"parameterUnit":"m.s-1","parameterCategory":2,"la1":30.2991,"la2":30.254,"lo1":-89.0895,"lo2":-89.0444,"dy":0.0017,"dx":0.0017,"nx":28,"ny":28,"refTime":"2023-11-14T09:00:00:Z","depth":"2","parameterNumber":3,"parameterNumberName":"V-component_of_CURRENTS"},"data":[0,0,0,0,0,0,0,0,0,0,0,0,0,0,0,0,0,0,0,0,0,0,0,0,0,0,0,0,0,0,0,0,0,0,0,0,0,0,0,0,0,0,0,0,0,0,0,0,0,0,0,0,0,0,0,0,0,0,-0.0279,-0.0278,0,-0.0172,-0.0171,-0.017,-0.0112,-0.0112,-0.0112,-0.0112,0.0001,0.0004,0.0007,0,0,0,0,0,0,0,0,0,0,0,0,0,-0.0392,-0.0391,-0.0279,-0.0277,-0.0276,-0.0172,-0.0171,-0.0169,-0.0112,-0.0112,-0.0112,-0.0112,0.0,0.0004,0.0007,0,0,0,0,0,0,0,0,0,0,0,0,0,-0.032,-0.039,-0.0279,-0.0235,-0.023,-0.0173,-0.0171,-0.0169,-0.0112,-0.0112,-0.0112,-0.0112,-0.0001,0.0003,0.0008,0.0031,0,0,0.0021,0.0023,0,0,0,0,0,0,0,0,-0.0324,-0.0316,-0.0243,-0.0238,-0.0232,-0.0155,-0.0169,-0.0102,-0.0112,-0.0157,-0.0112,-0.0112,-0.0051,-0.0042,-0.0023,0.0036,0.0041,0.0021,0.0024,0.0026,0.0027,0,0,0,0,0,0,0,-0.0329,-0.032,-0.0236,-0.0242,-0.0235,-0.0207,-0.0197,-0.0156,-0.0106,-0.0153,-0.0149,-0.0137,-0.0048,-0.0027,-0.002,0.0043,0.0021,0.0025,0.0028,0.0029,0.0136,0.0136,0,0,0,0,0,0,-0.0345,-0.0325,-0.024,-0.0233,-0.0279,-0.0205,-0.0194,-0.018,-0.0106,-0.0095,-0.0137,-0.0135,-0.0035,-0.0025,-0.0015,0.0023,0.0026,0.003,0.0032,0.0136,0.0136,0.0136,0,0,0,0,0,0,-0.0348,-0.0338,-0.0244,-0.0277,-0.0263,-0.0204,-0.0189,-0.0178,-0.0157,-0.0095,-0.0083,-0.0127,-0.0034,-0.0021,0.0024,0.0027,0.0032,0.0036,0.0136,0.0136,0.0136,0.0095,0,0,0,0,0,0,-0.0351,-0.034,-0.0339,-0.0278,-0.0262,-0.0216,-0.0188,-0.0176,-0.015,-0.0146,-0.0082,-0.0071,-0.0033,0.0017,0.0028,0.0033,0.0039,0.0135,0.0136,0.0136,0.0096,0.0094,0.0092,0,0,0,0,0,-0.0356,-0.0356,-0.034,-0.033,-0.0261,-0.0216,-0.0205,-0.0162,-0.015,-0.0143,-0.0096,-0.0073,0.0027,0.0021,0.0034,0.004,0.0135,0.0136,0.0136,0.0097,0.0095,0.0093,0,0,0,0,0,0,-0.0407,-0.0348,-0.0329,-0.0312,-0.027,-0.0206,-0.0197,-0.0167,-0.0124,-0.0122,-0.0065,-0.0051,-0.0014,0.002,0.0011,0.0072,0.0083,0.0086,0.0049,0.0047,0.0045,0.0036,0.0043,0,0,0,0,0,-0.0419,-0.0402,-0.0343,-0.0331,-0.0313,-0.0257,-0.0235,-0.0205,-0.0157,-0.0138,-0.0091,-0.0043,-0.0001,0.0027,0.0066,0.0104,0.0138,0.0116,0.0114,0.0112,0.0113,0.0164,0.0167,0.0138,0.0138,0.0138,0,0,-0.0437,-0.0401,-0.0393,-0.0341,-0.0306,-0.0283,-0.0243,-0.0214,-0.019,-0.0133,-0.0093,-0.0052,0.0006,0.0046,0.0066,0.0076,0.0138,0.0112,0.011,0.0113,0.0165,0.0168,0.017,0.0138,0.0138,0.0138,0,0,-0.0467,-0.0433,-0.0432,-0.0397,-0.0348,-0.0308,-0.0304,-0.0241,-0.021,-0.0166,-0.0121,-0.0074,-0.0011,0.0039,0.0069,0.0081,0.0119,0.0087,0.0079,0.0128,0.0131,0.0134,0.0179,0.0186,0.0093,0.0093,0.0093,0,-0.0496,-0.0478,-0.0426,-0.0413,-0.0389,-0.0325,-0.0317,-0.0272,-0.0203,-0.0174,-0.0163,-0.0056,-0.0012,0.0053,0.0056,0.0077,0.0107,0.0082,0.0125,0.0129,0.0133,0.0178,0.0187,0.0091,0.0091,0.0091,0.0091,0,-0.052,-0.0505,-0.0502,-0.0461,-0.0428,-0.0411,-0.0343,-0.0308,-0.0266,-0.0215,-0.015,-0.008,-0.0016,0.0005,0.0036,0.0086,0.0099,0.011,0.0129,0.0133,0.0181,0.019,0.0088,0.0089,0.0089,0.009,0,0,-0.0586,-0.0533,-0.0532,-0.0523,-0.0453,-0.0432,-0.0386,-0.0324,-0.0294,-0.0221,-0.0175,-0.0093,-0.0052,-0.0015,0.0036,0.0085,0.0135,0.0103,0.0107,0.0143,0.024,0.0301,0.0318,0.015,0.0151,0.0152,0.0263,0,-0.0625,-0.0627,-0.0574,-0.0567,-0.0564,-0.0482,-0.0446,-0.0378,-0.0311,-0.0249,-0.0157,-0.0101,-0.0059,-0.0032,0.0027,0.0109,0.0158,0.0104,0.0236,0.024,0.029,0.0331,0.0282,0.0381,0.0272,0.0274,0.0275,0,-0.0667,-0.0661,-0.0673,-0.0624,-0.0613,-0.0594,-0.0521,-0.0478,-0.0366,-0.0311,-0.0224,-0.015,-0.005,-0.0031,0.0125,0.0086,0.0155,0.0217,0.0223,0.0302,0.0319,0.0361,0.0403,0.0292,0.029,0.0289,0.0288,0,-0.0755,-0.0725,-0.0742,-0.0727,-0.0664,-0.0647,-0.0608,-0.0508,-0.0469,-0.0353,-0.0311,-0.0176,-0.0111,0.0001,0.0147,0.0131,0.0312,0.0307,0.0429,0.0434,0.0432,0.0435,0.0402,0.0402,0.0401,0.0401,0.0401,0,-0.0819,-0.0828,-0.079,-0.08,-0.0813,-0.0732,-0.0717,-0.065,-0.0552,-0.0507,-0.0362,-0.0291,-0.0103,0.0032,0.0146,0.0336,0.0318,0.0444,0.0475,0.0417,0.0417,0.0367,0.0362,0.0405,0.0404,0.0404,0.0403,0,-0.0912,-0.0887,-0.0907,-0.0868,-0.086,-0.0873,-0.0809,-0.0791,-0.068,-0.0614,-0.0581,-0.0372,-0.0175,0.0021,0.0226,0.0341,0.0504,0.0565,0.049,0.0512,0.0588,0.0579,0.0717,0.072,0.0723,0.0725,0.0727,0,-0.0959,-0.0985,-0.0985,-0.101,-0.0998,-0.0995,-0.0992,-0.0884,-0.0846,-0.0662,-0.0635,-0.0414,-0.0236,0.0119,0.0359,0.0606,0.0582,0.0693,0.0663,0.0608,0.0625,0.0611,0.0599,0.0638,0.0639,0.0639,0.064,0,-0.1049,-0.1053,-0.1073,-0.1138,-0.1156,-0.1159,-0.1131,-0.1114,-0.0971,-0.0879,-0.0705,-0.0543,-0.0154,0.0156,0.0502,0.0619,0.0658,0.0721,0.0693,0.0571,0.0545,0.0557,0.0545,0.0648,0.0647,0.0646,0.0646,0.0646,-0.1116,-0.1162,-0.1202,-0.1261,-0.1292,-0.1306,-0.1309,-0.1233,-0.1162,-0.0974,-0.0789,-0.0506,-0.0163,0.0342,0.0573,0.0772,0.0768,0.0798,0.079,0.0782,0.076,0.074,0.0875,0.0876,0.0876,0.0877,0.0877,0,-0.1187,-0.1244,-0.1316,-0.1377,-0.1431,-0.1414,-0.1391,-0.1346,-0.1259,-0.1026,-0.0813,-0.0423,-0.0031,0.03,0.0645,0.0864,0.0806,0.0867,0.0758,0.075,0.0743,0.0713,0.0819,0.082,0.082,0.082,0,0,-0.1227,-0.1321,-0.1364,-0.1487,-0.1527,-0.1562,-0.1551,-0.1445,-0.1277,-0.1038,-0.0798,-0.045,-0.0016,0.022,0.0497,0.0669,0.0631,0.0657,0.068,0.0508,0.0498,0.0684,0.0629,0,0,0,0,0]}],[{"header":{"parameterUnit":"m.s-1","parameterCategory":2,"la1":30.2991,"la2":30.254,"lo1":-89.0895,"lo2":-89.0444,"dy":0.0017,"dx":0.0017,"nx":28,"ny":28,"refTime":"2023-11-14T09:00:00:Z","depth":"4","parameterNumber":2,"parameterNumberName":"U-component_of_CURRENTS"},"data":[0,0,0,0,0,0,0,0,0,0,0,0,0,0,0,0,0,0,0,0,0,0,0,0,0,0,0,0,0,0,0,0,0,0,0,0,0,0,0,0,0,0,0,0,0,0,0,0,0,0,0,0,0,0,0,0,0,0,-0.151,-0.1511,0,-0.1556,-0.1556,-0.1557,-0.1595,-0.1595,-0.1596,-0.1596,-0.1628,-0.1628,-0.1628,0,0,0,0,0,0,0,0,0,0,0,0,0,-0.1427,-0.1429,-0.151,-0.1511,-0.1511,-0.1556,-0.1556,-0.1557,-0.1595,-0.1595,-0.1596,-0.1597,-0.1628,-0.1628,-0.1628,0,0,0,0,0,0,0,0,0,0,0,0,0,-0.1465,-0.1429,-0.151,-0.1537,-0.154,-0.1556,-0.1556,-0.1557,-0.1594,-0.1595,-0.1596,-0.1597,-0.1628,-0.1628,-0.1628,-0.1613,0,0,-0.163,-0.163,0,0,0,0,0,0,0,0,-0.1463,-0.1468,-0.1532,-0.1535,-0.1539,-0.1572,-0.1539,-0.1576,-0.1594,-0.1572,-0.1596,-0.1597,-0.1608,-0.1611,-0.1614,-0.1614,-0.1616,-0.163,-0.163,-0.163,-0.163,0,0,0,0,0,0,0,-0.146,-0.1466,-0.1526,-0.1533,-0.1537,-0.1538,-0.1544,-0.1546,-0.1583,-0.1574,-0.1577,-0.1585,-0.161,-0.1614,-0.1615,-0.1616,-0.163,-0.163,-0.163,-0.163,-0.168,-0.1681,0,0,0,0,0,0,-0.146,-0.1464,-0.1525,-0.1528,-0.1505,-0.1539,-0.1546,-0.1559,-0.1583,-0.1588,-0.1584,-0.1587,-0.1613,-0.1615,-0.1617,-0.168,-0.163,-0.163,-0.1631,-0.1679,-0.1681,-0.1682,0,0,0,0,0,0,-0.1458,-0.1465,-0.1523,-0.1498,-0.1506,-0.154,-0.1554,-0.1559,-0.1593,-0.1592,-0.1597,-0.1616,-0.1614,-0.1616,-0.1645,-0.1679,-0.1631,-0.1631,-0.1678,-0.168,-0.1681,-0.1756,0,0,0,0,0,0,-0.1455,-0.1464,-0.1484,-0.1498,-0.1507,-0.1552,-0.1553,-0.156,-0.1595,-0.16,-0.1619,-0.1622,-0.1614,-0.1645,-0.1646,-0.1678,-0.1631,-0.1677,-0.1679,-0.1681,-0.1752,-0.176,-0.1766,0,0,0,0,0,-0.1452,-0.1474,-0.1484,-0.1492,-0.153,-0.1554,-0.1559,-0.1583,-0.1596,-0.1616,-0.1631,-0.1622,-0.1658,-0.1646,-0.1647,-0.1681,-0.1676,-0.1678,-0.1681,-0.1749,-0.1758,-0.1766,0,0,0,0,0,0,-0.145,-0.148,-0.1492,-0.1523,-0.1547,-0.1561,-0.1586,-0.1599,-0.1626,-0.1638,-0.1635,-0.1639,-0.1674,-0.1665,-0.1652,-0.17,-0.1666,-0.1668,-0.1717,-0.1726,-0.1733,-0.1738,-0.1632,0,0,0,0,0,-0.1457,-0.1484,-0.1507,-0.1535,-0.155,-0.1572,-0.159,-0.1607,-0.1627,-0.1642,-0.1657,-0.1669,-0.1679,-0.1695,-0.1697,-0.1726,-0.172,-0.1747,-0.1754,-0.1761,-0.1765,-0.1781,-0.179,-0.169,-0.169,-0.169,0,0,-0.1465,-0.1485,-0.1502,-0.1537,-0.1558,-0.1592,-0.1586,-0.1623,-0.1658,-0.1639,-0.1697,-0.1694,-0.169,-0.1723,-0.1738,-0.1725,-0.1789,-0.1764,-0.1769,-0.177,-0.1784,-0.1794,-0.1803,-0.1692,-0.1691,-0.1691,0,0,-0.1488,-0.1513,-0.1543,-0.1568,-0.1607,-0.1621,-0.1639,-0.1671,-0.1697,-0.1739,-0.1735,-0.1754,-0.1778,-0.1781,-0.1784,-0.1831,-0.1822,-0.1838,-0.1887,-0.1904,-0.1912,-0.1919,-0.1939,-0.1947,-0.1848,-0.1848,-0.1848,0,-0.1498,-0.154,-0.1555,-0.1591,-0.1622,-0.164,-0.1682,-0.1707,-0.1748,-0.1773,-0.177,-0.1811,-0.1804,-0.1841,-0.1856,-0.1849,-0.1859,-0.1857,-0.1914,-0.1921,-0.1927,-0.1945,-0.1953,-0.1852,-0.1851,-0.1851,-0.1851,0,-0.1536,-0.1584,-0.1605,-0.1659,-0.169,-0.1729,-0.1764,-0.1804,-0.1834,-0.1854,-0.1904,-0.1896,-0.1919,-0.1921,-0.1903,-0.1949,-0.1942,-0.1917,-0.1894,-0.1942,-0.1957,-0.1965,-0.1857,-0.1856,-0.1855,-0.1854,0,0,-0.1523,-0.1615,-0.1627,-0.167,-0.1733,-0.176,-0.1826,-0.1882,-0.1932,-0.1962,-0.202,-0.2026,-0.2021,-0.2022,-0.2007,-0.202,-0.2067,-0.1995,-0.1994,-0.2018,-0.2117,-0.2001,-0.1997,-0.206,-0.2061,-0.2062,-0.2115,0,-0.1552,-0.1634,-0.1674,-0.176,-0.1804,-0.1851,-0.191,-0.1963,-0.2004,-0.2063,-0.2065,-0.2103,-0.2061,-0.2077,-0.2085,-0.2068,-0.2088,-0.2056,-0.2063,-0.2063,-0.1956,-0.2002,-0.2066,-0.212,-0.2122,-0.2123,-0.2124,0,-0.1568,-0.1627,-0.1713,-0.182,-0.1845,-0.19,-0.1997,-0.2052,-0.2126,-0.216,-0.2196,-0.2197,-0.2221,-0.2175,-0.2185,-0.2171,-0.2153,-0.2137,-0.2139,-0.2006,-0.1959,-0.2057,-0.2137,-0.2136,-0.2135,-0.2134,-0.2133,0,-0.1533,-0.1651,-0.1724,-0.1759,-0.1876,-0.1932,-0.1997,-0.2082,-0.2134,-0.222,-0.2262,-0.229,-0.2308,-0.2294,-0.2249,-0.2231,-0.2258,-0.2224,-0.211,-0.2103,-0.2159,-0.215,-0.2241,-0.2241,-0.2241,-0.2241,-0.224,0,-0.1526,-0.159,-0.1721,-0.1758,-0.185,-0.1935,-0.2027,-0.2098,-0.2196,-0.2249,-0.2303,-0.2331,-0.2338,-0.2344,-0.2298,-0.2222,-0.2297,-0.2126,-0.2107,-0.219,-0.2185,-0.2165,-0.2155,-0.2243,-0.2242,-0.2242,-0.2241,0,-0.1461,-0.1552,-0.1641,-0.1784,-0.1832,-0.1892,-0.2034,-0.2092,-0.2201,-0.2275,-0.2304,-0.2379,-0.238,-0.2378,-0.2361,-0.2271,-0.222,-0.2178,-0.2288,-0.2274,-0.2047,-0.2041,-0.2058,-0.2054,-0.2051,-0.2049,-0.2046,0,-0.1432,-0.1471,-0.1631,-0.1681,-0.175,-0.1856,-0.1925,-0.2068,-0.2119,-0.2271,-0.2286,-0.2355,-0.2376,-0.2271,-0.2276,-0.2212,-0.2172,-0.2147,-0.2071,-0.2047,-0.2029,-0.2027,-0.2025,-0.2041,-0.2041,-0.204,-0.2039,0,-0.1361,-0.1426,-0.1493,-0.16,-0.1688,-0.1775,-0.1883,-0.1916,-0.2066,-0.2191,-0.2214,-0.2212,-0.2224,-0.2187,-0.2163,-0.2105,-0.2159,-0.2113,-0.2118,-0.2047,-0.2028,-0.2012,-0.2013,-0.2028,-0.203,-0.2031,-0.2031,0,-0.1293,-0.1317,-0.1409,-0.1488,-0.1596,-0.1653,-0.1736,-0.1806,-0.1882,-0.2056,-0.2055,-0.2128,-0.2211,-0.2133,-0.21,-0.2048,-0.2001,-0.192,-0.1934,-0.1947,-0.1877,-0.1834,-0.1766,0,0,0,0,0,-0.1212,-0.1222,-0.129,-0.1367,-0.1471,-0.1527,-0.1683,-0.1768,-0.1921,-0.1897,-0.1975,-0.1976,-0.1952,-0.1983,-0.1897,-0.2024,-0.1995,-0.1916,-0.1908,-0.1968,-0.1981,-0.1904,0,0,0,0,0,0,-0.1154,-0.1203,-0.1237,-0.1246,-0.1266,-0.1363,-0.1455,-0.1572,-0.157,-0.173,-0.1723,-0.1841,-0.1834,-0.1952,-0.1842,-0.185,-0.1806,-0.1966,-0.1962,-0.1961,-0.1972,-0.1982,-0.1908,0,0,0,0,0]},{"header":{"parameterUnit":"m.s-1","parameterCategory":2,"la1":30.2991,"la2":30.254,"lo1":-89.0895,"lo2":-89.0444,"dy":0.0017,"dx":0.0017,"nx":28,"ny":28,"refTime":"2023-11-14T09:00:00:Z","depth":"4","parameterNumber":3,"parameterNumberName":"V-component_of_CURRENTS"},"data":[0,0,0,0,0,0,0,0,0,0,0,0,0,0,0,0,0,0,0,0,0,0,0,0,0,0,0,0,0,0,0,0,0,0,0,0,0,0,0,0,0,0,0,0,0,0,0,0,0,0,0,0,0,0,0,0,0,0,-0.0155,-0.0154,0,-0.0087,-0.0086,-0.0086,-0.0051,-0.0051,-0.0051,-0.0051,0.0043,0.0045,0.0047,0,0,0,0,0,0,0,0,0,0,0,0,0,-0.0221,-0.022,-0.0155,-0.0154,-0.0153,-0.0087,-0.0086,-0.0085,-0.0051,-0.0051,-0.0051,-0.0051,0.0042,0.0045,0.0048,0,0,0,0,0,0,0,0,0,0,0,0,0,-0.0176,-0.0219,-0.0155,-0.0128,-0.0125,-0.0087,-0.0086,-0.0085,-0.0051,-0.0051,-0.0051,-0.0051,0.0041,0.0044,0.0048,0.0071,0,0,0.006,0.0061,0,0,0,0,0,0,0,0,-0.0179,-0.0174,-0.0133,-0.013,-0.0127,-0.0078,-0.0075,-0.0032,-0.0051,-0.0079,-0.0051,-0.0051,0.0005,0.0011,0.0024,0.0075,0.0079,0.006,0.0062,0.0064,0.0065,0,0,0,0,0,0,0,-0.0182,-0.0176,-0.0128,-0.0132,-0.0128,-0.0108,-0.0102,-0.0067,-0.0037,-0.0076,-0.0074,-0.0067,0.0007,0.002,0.0027,0.0081,0.006,0.0063,0.0065,0.0067,0.0157,0.0157,0,0,0,0,0,0,-0.0193,-0.0179,-0.013,-0.0126,-0.0154,-0.0107,-0.01,-0.0093,-0.0038,-0.003,-0.0067,-0.0065,0.0014,0.0022,0.003,0.0064,0.0064,0.0067,0.0069,0.0157,0.0157,0.0157,0,0,0,0,0,0,-0.0194,-0.0189,-0.0132,-0.0151,-0.0143,-0.0106,-0.0098,-0.0092,-0.0079,-0.0031,-0.0023,-0.0061,0.0014,0.0025,0.0061,0.0068,0.0069,0.0072,0.0157,0.0157,0.0157,0.0129,0,0,0,0,0,0,-0.0196,-0.019,-0.0191,-0.0152,-0.0142,-0.0113,-0.0098,-0.0091,-0.0075,-0.0072,-0.0023,-0.0014,0.0015,0.0055,0.0065,0.0073,0.0075,0.0156,0.0157,0.0157,0.013,0.0129,0.0127,0,0,0,0,0,-0.0199,-0.0198,-0.0192,-0.0186,-0.0144,-0.0113,-0.0106,-0.008,-0.0075,-0.0069,-0.0036,-0.0016,0.0064,0.0059,0.007,0.0079,0.0156,0.0157,0.0157,0.0131,0.0129,0.0128,0,0,0,0,0,0,-0.0227,-0.0194,-0.0186,-0.0175,-0.0149,-0.0107,-0.0101,-0.0083,-0.0053,-0.0052,-0.001,0.0002,0.0033,0.006,0.0053,0.0105,0.0112,0.0114,0.0088,0.0087,0.0086,0.0078,0.0078,0,0,0,0,0,-0.0235,-0.0227,-0.0192,-0.0185,-0.0174,-0.014,-0.0126,-0.0107,-0.0074,-0.0061,-0.0026,0.001,0.0044,0.0067,0.0097,0.0132,0.0159,0.0143,0.0142,0.014,0.0141,0.0185,0.0188,0.0158,0.0158,0.0158,0,0,-0.0246,-0.0226,-0.0223,-0.0191,-0.017,-0.0156,-0.0131,-0.0112,-0.0097,-0.0055,-0.0026,0.0005,0.0049,0.0083,0.01,0.0108,0.0163,0.0141,0.014,0.0141,0.0186,0.0189,0.0191,0.0159,0.0158,0.0158,0,0,-0.0264,-0.0245,-0.0247,-0.0226,-0.0197,-0.0172,-0.0169,-0.0129,-0.0108,-0.0076,-0.0045,-0.0008,0.0042,0.0081,0.0106,0.0117,0.0148,0.0122,0.0119,0.0161,0.0164,0.0167,0.0202,0.0208,0.0128,0.0128,0.0128,0,-0.0281,-0.0275,-0.0242,-0.0235,-0.0223,-0.0182,-0.018,-0.0148,-0.0101,-0.0082,-0.0074,0.0007,0.0044,0.0096,0.0098,0.0115,0.0139,0.0121,0.0159,0.0163,0.0166,0.0202,0.0209,0.0127,0.0127,0.0127,0.0127,0,-0.0296,-0.0293,-0.0291,-0.027,-0.0249,-0.0241,-0.0195,-0.0172,-0.0146,-0.011,-0.006,-0.0005,0.0043,0.0062,0.0085,0.0129,0.0137,0.0146,0.0162,0.0167,0.0204,0.0212,0.0125,0.0125,0.0126,0.0126,0,0,-0.0333,-0.031,-0.0311,-0.0314,-0.027,-0.0258,-0.0226,-0.0186,-0.0169,-0.0113,-0.0082,-0.0013,0.0018,0.0047,0.0088,0.0132,0.0176,0.0146,0.0149,0.0178,0.0264,0.0256,0.0265,0.019,0.0191,0.0192,0.0279,0,-0.036,-0.0374,-0.0341,-0.0346,-0.0351,-0.0299,-0.0276,-0.023,-0.0183,-0.014,-0.0065,-0.0025,0.0014,0.0033,0.0086,0.0153,0.0196,0.0151,0.0257,0.026,0.0251,0.0273,0.0196,0.0285,0.0287,0.0288,0.0289,0,-0.0386,-0.0394,-0.0415,-0.0399,-0.0394,-0.0386,-0.0345,-0.0317,-0.0236,-0.0196,-0.0127,-0.0069,0.0016,0.0034,0.0167,0.0134,0.0193,0.0246,0.025,0.0259,0.0268,0.0281,0.0304,0.0303,0.0302,0.0301,0.03,0,-0.0444,-0.0441,-0.0467,-0.0462,-0.0434,-0.0431,-0.0412,-0.0344,-0.0321,-0.0234,-0.0205,-0.0092,-0.0041,0.0058,0.0178,0.0169,0.0316,0.0319,0.037,0.037,0.0362,0.0358,0.0401,0.0401,0.04,0.04,0.04,0,-0.0483,-0.0501,-0.0505,-0.0519,-0.0547,-0.0499,-0.0503,-0.0458,-0.0394,-0.0364,-0.0248,-0.0193,-0.0036,0.0073,0.0174,0.0304,0.0318,0.0376,0.0396,0.0348,0.0342,0.0368,0.0363,0.0404,0.0403,0.0402,0.0402,0,-0.0533,-0.0535,-0.0571,-0.0573,-0.0579,-0.0601,-0.0582,-0.0577,-0.0501,-0.0456,-0.0431,-0.0268,-0.0116,0.0044,0.0215,0.0292,0.0417,0.0454,0.0394,0.0408,0.0442,0.0435,0.052,0.0521,0.0521,0.0522,0.0522,0,-0.0556,-0.0585,-0.0629,-0.0665,-0.0671,-0.0696,-0.071,-0.0648,-0.0628,-0.0497,-0.0475,-0.0313,-0.0194,0.0052,0.0217,0.0422,0.044,0.0499,0.0471,0.0445,0.0456,0.0448,0.044,0.0523,0.0523,0.0523,0.0523,0,-0.0601,-0.0626,-0.0658,-0.0743,-0.0782,-0.0812,-0.0817,-0.0804,-0.0713,-0.0653,-0.0505,-0.0341,-0.0164,0.0044,0.0209,0.0352,0.0462,0.0504,0.0503,0.0478,0.0449,0.0458,0.045,0.0525,0.0524,0.0524,0.0524,0,-0.0635,-0.0679,-0.0738,-0.0803,-0.0868,-0.0897,-0.0889,-0.0839,-0.0799,-0.0636,-0.0593,-0.0367,-0.0229,0.0009,0.0162,0.0308,0.0334,0.0359,0.0366,0.0367,0.0297,0.0236,0.027,0,0,0,0,0,-0.0657,-0.0713,-0.0789,-0.0856,-0.0923,-0.095,-0.0944,-0.0913,-0.0824,-0.0738,-0.0656,-0.0482,-0.0204,-0.0069,0.0072,0.0152,0.0343,0.0319,0.0371,0.0533,0.0532,0.0475,0,0,0,0,0,0,-0.0676,-0.0752,-0.0794,-0.0887,-0.0939,-0.0994,-0.099,-0.0928,-0.0858,-0.0749,-0.0602,-0.048,-0.0216,-0.03,0.006,0.0112,0.0157,0.0463,0.0465,0.0534,0.0533,0.0531,0.0473,0,0,0,0,0]}]]